www.pogodaiklimat.ru

Погода и климат >> Архив погоды >> Казахстан >> Есиль


АРХИВ ПОГОДЫ в Есиле

Время (UTC), дата Ветер
(напр.,м/с)
 
Видим.   Явления Облачность Т
(С)
Тd
(С)
f
(%)
Тe
(С)
Тes
(С)
Комфортность P
(гПа)
Po
(гПа)
Тmin
(С)
Tmax
(С)
R
(мм)
R24
(мм)
S
(см)
15 16.07 СЗ 5 20 км 3/3 600 м
[Cb calv]
+26.8 +9.6 34 +27 +27 жарко 1006.9 981.6 +31.5
18 16.07 СЗ 3 н/о ясно +17.8 +8.1 53 +18 +18 1009.2 983.0 +31.5
21 16.07 С 4 н/о ясно +18.8 +11.2 61 +19 +19 1010.4 984.3
00 17.07 С 1 20 км 3/0
[Ci fib]
+12.9 +10.8 87 +13 +13 1012.5 985.8
03 17.07 С 6 20 км ясно +20.3 +11.7 58 +22 +24 комфорт 1012.5 986.5
06 17.07 С 6 20 км 3/0
[Ci fib]
+24.1 +9.8 40 +25 +30 комфорт 1012.2 986.5 +11.9
09 17.07 С 5 20 км 3/0
[Cs]
+27.9 +6.5 26 +27 +35 жарко 1011.3 985.9
12 17.07 С 5 20 км 3/0
[Cs]
+28.9 +4.9 22 +27 +30 жарко 1010.9 985.6
15 17.07 С 2 20 км 3/0
[Ci fib]
+26.2 +8.7 33 +26 +27 жарко 1010.9 985.4 +31.3
18 17.07 С 2 н/о 3/0
[Ci fib]
+15.7 +8.5 62 +16 +16 1013.3 986.8 +31.3
21 17.07 С 1 н/о 5/0
[Ci fib]
+12.3 +8.1 76 +12 +12 1013.6 986.8
00 18.07 С 1 20 км 4/0
[Ac trans Ci fib]
+10.5 +7.4 81 +10 +10 1013.9 986.9
03 18.07 С 1 20 км 3/1 600 м
[Cb calv Ac trans]
+22.1 +10.3 47 +24 +29 комфорт 1013.4 987.5
06 18.07 С 1 20 км 3/0
[Ac trans]
+27.3 +8.0 30 +27 +41 жарко 1012.9 987.4 +9.7
09 18.07 С 4 20 км 1/0
[Ac trans]
+29.9 +6.2 22 +28 +38 жарко 1011.9 986.7
12 18.07 С 4 20 км 1/1 600 м
[Sc]
+31.2 +6.5 21 +30 +33 жарко 1011.0 985.9
15 18.07 С 1 20 км 3/0
[Ci fib]
+28.9 +9.5 30 +29 +29 жарко 1011.4 986.1 +33.0
18 18.07 С 1 н/о ясно +18.8 +9.2 54 +20 +20 1012.2 986.0 +33.0
21 18.07 С 1 н/о ясно +15.2 +9.0 66 +16 +16 1012.5 986.0
00 19.07 С 1 20 км ясно +13.5 +9.8 78 +14 +14 1013.3 986.6
03 19.07 СВ 1 20 км 1/0
[Ci fib]
+22.1 +10.1 46 +24 +30 комфорт 1013.2 987.3
06 19.07 СВ 2 20 км 6/5 600 м
[Cu Sc Ac trans]
+32.0 +7.1 21 +30 +37 жарко 1011.5 986.4 +12.0
09 19.07 З 1 20 км 3/0
[Ac trans]
+33.8 +8.9 22 +33 +47 жарко 1010.5 985.6
12 19.07 С 2 20 км 6/6
[Cu hum]
+34.7 +8.6 20 +33 +35 жарко 1009.7 984.9
15 19.07 С 3 20 км 8/4 600 м
[Sc Ac trans Ci fib]
+30.7 +10.1 28 +30 +30 жарко 1009.9 984.8 +37.2
18 19.07 С 2 н/о 8/8 600 м
[Sc]
+21.2 +11.8 55 +23 +23 комфорт 1011.4 985.5 +37.2
21 19.07 С 1 н/о 4/4 600 м
[Sc]
+18.6 +11.8 65 +20 +20 1012.1 985.9
00 20.07 С 2 20 км 8/8 600 м
[Sc]
+19.5 +11.4 59 +21 +21 комфорт 1011.7 985.6
03 20.07 З 1 20 км 8/3 600 м
[Sc Ac As]
+23.7 +13.1 51 +26 +28 жарко 1011.8 986.1
06 20.07 З 4 10 км слаб. дождь 10/5 600 м
[Sc As op]
+22.2 +16.7 71 +27 +28 душно 1013.6 987.8 +16.1
09 20.07 В 1 20 км {дождь} 10/3 600 м
[Sc As op]
+27.3 +15.2 48 +30 +33 душно 1011.9 986.5
12 20.07 В 4 20 км {дождь} 9/3 600 м
[Cu Sc Ac As Ci fib]
+30.6 +11.0 30 +31 +32 жарко 1010.4 985.3
15 20.07 В 3 20 км 8/4 600 м
[Sc Ac trans]
+27.3 +12.0 39 +29 +29 жарко 1010.1 984.7 +32.5
18 20.07 В 2 н/о в посл. час дождь 10/5 600 м
[Sc Ac As]
+24.1 +13.8 53 +26 +26 жарко 1008.9 983.3 +32.5 0.3
21 20.07 В 4 н/о гроза без осадков {ливн. осадки} 8/8 600 м
[Cb cap]
+21.7 +15.2 67 +25 +25 комфорт 1008.2 982.4
00 21.07 В 3 20 км {гроза, ливн. осадки} 9/4 600 м
[Cb cap Ac trans Cs]
+19.9 +13.9 68 +22 +22 комфорт 1007.1 981.2
03 21.07 Ю 5 20 км 9/6 600 м
[Cb cap Ac trans Ci fib]
+26.3 +13.1 44 +28 +29 жарко 1005.0 979.7
06 21.07 Ю 10 20 км 8/6 600 м
[Cb cap Cs]
+34.1 +11.2 25 +34 +34 очень
жарко
1002.1 977.5 +19.9 0.1
09 21.07 Ю 10
{15}
4000 м пыльная буря {гроза, ливн. осадки} 6/6 600 м
[Cb cap]
+35.7 +10.0 21 +35 +35 очень
жарко
999.9 975.4
12 21.07 Ю 6 4000 м пыльная буря {гроза, ливн. осадки} 8/8 600 м
[Cb calv]
+36.3 +6.4 16 +34 +34 очень
жарко
998.2 973.8
15 21.07 Ю 4 20 км {метель} 6/3 600 м
[Cb cap Ac trans Cc]
+32.2 +10.4 26 +32 +32 жарко 998.1 973.4 +39.5
18 21.07 ЮЗ 15-18
{19}
н/о зарница 4/4 600 м
[Cb cap]
+22.2 +14.5 62 +26 +26 душно 1000.8 975.3 +39.5 0.0
21 21.07 СЗ 8
{18}
н/о 3/3 600 м
[Sc]
+16.9 +12.6 76 +16 +16 1004.8 978.7
00 22.07 СЗ 7 20 км 3/3 600 м
[Sc]
+15.2 +12.3 83 +13 +13 1005.8 979.5
03 22.07 СЗ 7 20 км ясно +20.0 +13.4 66 +22 +23 комфорт 1007.3 981.4
06 22.07 СЗ 9 20 км 6/6 1000 м
[Cu hum]
+25.5 +13.1 46 +27 +28 жарко 1006.7 981.3 +14.1
09 22.07 СЗ 8 20 км 6/6 1000 м
[Cu hum]
+28.7 +9.0 29 +28 +30 жарко 1007.2 982.0
12 22.07 СЗ 8 20 км 6/5 1000 м
[Cu hum Ci fib]
+29.7 +7.1 24 +29 +29 жарко 1006.1 981.0
15 22.07 СЗ 4 20 км 8/4 600 м
[Cu Sc Ac trans Cc]
+25.9 +9.5 36 +27 +27 жарко 1006.9 981.5 +31.5
18 22.07 СЗ 1 н/о 6/3 600 м
[Cu Sc Ac trans Ci fib]
+19.0 +10.6 58 +21 +21 комфорт 1007.6 981.6 +31.5
21 22.07 штиль 0 н/о 6/3 600 м
[Sc Cc]
+16.2 +10.2 68 +16 +16 1007.4 981.1
00 23.07 штиль 0 20 км 9/5 600 м
[Sc Ac trans]
+13.5 +9.0 74 +13 +13 1007.7 981.2
03 23.07 штиль 0 20 км 9/5 600 м
[Cu Sc Ac As]
+21.2 +10.7 51 +23 +24 комфорт 1006.3 980.5
06 23.07 Ю 2 20 км гроза без осадков 9/9 600 м
[Cb cap]
+24.4 +10.9 43 +26 +27 жарко 1005.6 980.1 +13.0
09 23.07 З 4 20 км гроза без осадков {ливн. осадки} 9/9 600 м
[Cb cap]
+21.7 +13.8 61 +25 +26 комфорт 1005.6 979.9
12 23.07 В 2 20 км гроза без осадков {ливн. осадки} 8/8 600 м
[Cb cap]
+23.2 +15.8 63 +28 +29 душно 1005.8 980.2

 

Местоположение метеостанции Есиль (Акмолинская область, Казахстан): широта 51.88 долгота 66.33 высота над уровнем моря 221 м.

В архиве по умолчанию представлена погода в Есиле за последнюю неделю. Архивные данные за месяц целиком и за предыдущие месяцы, начиная с января 2011 года, Вы можете получить, выбрав интересующий диапазон дат из раскрывающегося списка и нажав кнопку "Ввод!".


*Определитесь, кто Вы:
робот инопланетянин человек

Внимание! Время в таблицах - всемирное. Для получения местного времени необходимо прибавить поправку, которая равна 6 ч.

Смотрите также архив погоды в соседних городах и на ближайших метеорологических станциях:

Погода в Железнодорожной (Костанайская область, Казахстан) (51 км)
Погода в Жаксы (Акмолинская область, Казахстан) (67 км)
Погода в Державинске (Акмолинская область, Казахстан) (87 км)
Погода в Жана-Кийме (Акмолинская область, Казахстан) (91 км)
Погода в Карасу (Костанайская область, Казахстан) (105 км)
Погода в Рузаевке (Северо-Казахстанская область, Казахстан) (113 км)
Погода в Тасты-Талды (Акмолинская область, Казахстан) (131 км)
Погода в Кусмурыне (Костанайская область, Казахстан) (131 км)
Погода в Караменды (Костанайская область, Казахстан) (133 км)
Погода в Атбасаре (Акмолинская область, Казахстан) (140 км)

Пояснения к столбцам:

Ветер - указаны скорость ветра в м/с - средняя за 10 мин, порывы в срок и между сроками (в фигурных скобках) и направление, откуда дует ветер: С - северный, СВ - северо-восточный, В - восточный, ЮВ - юго-восточный, Ю - южный, ЮЗ - юго-западный, З - западный, СЗ - северо-западный.
Видимость - горизонтальная дальность видимости в метрах или километрах. При видимости от 1 до 10 км при отсутствии осадков обычно наблюдается дымка, при ухудшении видимости до 1 км и менее - туман. В сухую погоду видимость может ухудшаться дымом, пылью или мглою.
Явления - указаны атмосферные явления, наблюдавшиеся в срок или в последний час перед сроком; фигурными скобками обозначены явления, наблюдавшиеся между сроками (за 1-3 часа до срока); квадратными скобками обозначены град или гололедные отложения с указанием их диаметра в мм.
Облачность - указаны через наклонную черту общая и нижняя облачность в баллах и высота нижней границы облаков в метрах; квадратными скобками обозначены формы облаков: Ci - перистые, Cs - перисто-слоистые, Cc - перисто-кучевые, Ac - высококучевые, As - высокослоистые, Sc - слоисто-кучевые, Ns - слоисто-дождевые, Cu - кучевые, Cb - кучево-дождевые. Подробнее классификацию облаков см. в Атласе облаков (PDF).
T - Температура воздуха - температура, измеренная на высоте 2 м над землей.
Td - Температура точки росы - температура, при понижении до которой содержащийся в воздухе водяной пар достигнет насыщения.
f - Относительная влажность воздуха - влажноcть воздуха, измеренная на высоте 2 м над землей.
Te - Эффективная температура - температура, которую ощущает одетый по сезону человек в тени. Характеристика душности погоды. При расчете учитывается влияние влажности воздуха и скорости ветра на теплоощущения человека.
Tes - Эффективная температура на солнце - температура, которую ощущает человек, с поправкой на солнечный нагрев. Характеристика знойности погоды. Зависит от высоты солнца над горизонтом, облачности и скорости ветра. Ночью, в пасмурную погоду, а также при ветре 12 м/с и более поправка равна нулю.
P - Атмосферное давление - приведенное к уровню моря атмосферное давление.
Po - Атмосферное давление - измеренное на уровне метеостанции атмосферное давление.
Tmin - Минимальная температура - минимум температуры воздуха на высоте 2 м над землей.
Tmax - Максимальная температура - максимум температуры воздуха на высоте 2 м над землей.
R - Количество осадков - Количество выпавших осадков за период времени, мм. При наведении курсора мыши на число - период времени, за который выпало указанное количество осадков.
R24 - Количество осадков - Количество выпавших осадков за 24 часа, мм.
S - Снежный покров - Высота снежного покрова, см. При наведении курсора мыши на число - состояние снежного покрова и степень покрытия местности в баллах.